This is the latest recevied weather packets stored in our database for station/object JF2ZGN-13. If no packets are shown the sender has not sent any weather packets the latest 10 day(s).
| Time | Temp. | Humidity | Pressure | Rain* | Wind** | Luminosity | Snow |
|---|---|---|---|---|---|---|---|
| 1787435622 | 20.56° C | 33% | 913.4 hPa | 0.25 mm | - | - | - |
| 1787435022 | 20° C | 31% | 913.3 hPa | 0.25 mm | - | - | - |
| 1787434421 | 20° C | 30% | 913.2 hPa | 0.25 mm | - | - | - |
| 1787433821 | 20° C | 39% | 913.1 hPa | 0.25 mm | - | - | - |
| 1787433221 | 20° C | 41% | 913.1 hPa | 0.25 mm | - | - | - |
| 1787432620 | 20° C | 42% | 913 hPa | 0.25 mm | - | - | - |
| 1787432019 | 20° C | 42% | 913 hPa | 0.25 mm | - | - | - |
| 1787431419 | 20° C | 42% | 913 hPa | 0.25 mm | - | - | - |
| 1787430818 | 20° C | 42% | 912.9 hPa | 0.25 mm | - | - | - |
| 1787430219 | 20° C | 42% | 912.8 hPa | 0.25 mm | - | - | - |
| 1787429618 | 19.44° C | 41% | 912.9 hPa | 0.25 mm | - | - | - |
| 1787429018 | 19.44° C | 40% | 912.9 hPa | 0.25 mm | - | - | - |
| 1787428417 | 19.44° C | 37% | 912.7 hPa | 0.25 mm | - | - | - |
| 1787427816 | 19.44° C | 41% | 912.8 hPa | 0 mm | - | - | - |
| 1787427216 | 19.44° C | 43% | 912.7 hPa | 0 mm | - | - | - |
| 1787426615 | 19.44° C | 46% | 912.7 hPa | 0 mm | - | - | - |
| 1787426015 | 19.44° C | 47% | 912.6 hPa | 0 mm | - | - | - |
| 1787425414 | 19.44° C | 47% | 912.7 hPa | 0 mm | - | - | - |
| 1787424814 | 19.44° C | 47% | 912.8 hPa | 0 mm | - | - | - |
| 1787424214 | 19.44° C | 45% | 912.8 hPa | 0 mm | - | - | - |
| 1787423613 | 19.44° C | 41% | 912.8 hPa | 0 mm | - | - | - |
| 1787423013 | 19.44° C | 43% | 912.8 hPa | 0 mm | - | - | - |
| 1787422412 | 19.44° C | 45% | 912.8 hPa | 0 mm | - | - | - |
| 1787421812 | 19.44° C | 44% | 912.8 hPa | 0 mm | - | - | - |
| 1787421212 | 19.44° C | 38% | 912.8 hPa | 0 mm | - | - | - |
* Rain since midnight (hover to see other rain measurements)
** Current wind speed in m/s (hover to see current wind gust speed)